Content
SEND FEEDBACK

Daily
Averages
Monthly
Summary
United States of America

BIG WATER, UTAH


Home > North America > United States > Utah
Elevation: 4166 feet     Latitude: 37 05N     Longitude: 111 40W

WEATHER
 
SELECT A DAY
Number of Records: 196,757;   Date Range: 1/1/95 - 9/27/14
 
SHARE

PRINT THIS DATA

[ ← Previous Day ]
WEATHER ALMANAC - FEBRUARY 25, 2013
[ Next Day → ]
[ °C ]   °F
Weather ElementAverageHighLow
Temperature37.4 °F48 °F (3:53 pm)26.1 °F (5:53 am)
Dewpoint7.2 °F9 °F (3:53 am)5 °F (4:53 pm)
Humidity30 %47 % (5:53 am)17 % (4:53 pm)
Barometer30.08 in30.22 in (7:53 am)29.94 in (9:53 pm)
Wind Speed3.3 mph6.9 mph (2:53 am)
Weather ElementAverage
Visibility9.8 mi
Wind DirectionENE (78.3 °)

Weather ElementTotal
Precipitation---
Heating Degree Days28 (Base 65)
Averaged from 23 records on February 25, 2013
WEATHER CONDITIONS BREAKOUT
WIND DIRECTION BREAKOUT
WEATHER BY HOUR - FEBRUARY 25, 2013
[ °C ]   °F
Local TimeTemperatureDewpointHumidityBarometerVisibilityWind DirectionWind SpeedGust SpeedPrecipitationEventsConditions
1:53 AM33.1 °F7.0 °F34 %30.14 in10.0 miVariable4.6 mphClear
2:53 AM32.0 °F8.1 °F37 %30.13 in10.0 miWNW (300°)6.9 mphClear
3:53 AM30.0 °F9.0 °F41 %30.15 in10.0 miCalmClear
4:53 AM28.0 °F8.1 °F43 %30.16 in10.0 miCalmClear
5:53 AM26.1 °F8.1 °F47 %30.19 in10.0 miCalmClear
6:53 AM26.1 °F8.1 °F47 %30.21 in10.0 miSE (140°)6.9 mphClear
7:53 AM30.0 °F8.1 °F40 %30.22 in10.0 miSE (140°)5.8 mphClear
8:53 AM33.1 °F9.0 °F37 %30.22 in10.0 miCalmClear
9:53 AM36.0 °F8.1 °F31 %30.20 in10.0 miCalmClear
10:53 AM37.9 °F8.1 °F29 %30.19 in10.0 miVariable4.6 mphClear
11:53 AM39.9 °F7.0 °F26 %30.16 in10.0 miEast (90°)5.8 mphClear
12:53 PM42.1 °F7.0 °F24 %30.11 in10.0 miNE (50°)3.5 mphClear
1:53 PM45.0 °F8.1 °F22 %30.06 in10.0 miNorth (360°)6.9 mphClear
2:53 PM46.9 °F8.1 °F21 %30.03 in10.0 miNE (40°)5.8 mphClear
3:53 PM48.0 °F6.1 °F18 %30.00 in10.0 miNE (40°)5.8 mphClear
4:53 PM48.0 °F5.0 °F17 %29.99 in10.0 miCalmClear
5:53 PM46.0 °F6.1 °F20 %29.98 in10.0 miNNE (20°)4.6 mphClear
6:53 PM43.0 °F5.0 °F21 %29.97 in10.0 miENE (60°)3.5 mphClear
7:53 PM39.9 °F6.1 °F25 %29.96 in10.0 miCalmClear
8:53 PM37.9 °F6.1 °F27 %29.95 in10.0 miCalmClear
9:53 PM36.0 °F7.0 °F30 %29.94 in5.0 miCalmHaze
10:53 PM36.0 °F7.0 °F30 %29.94 in10.0 miWest (280°)3.5 mphClear
11:53 PM39.9 °F5.0 °F23 %29.94 in10.0 miWest (280°)6.9 mphClear
Hourly data recorded from KPGA, located miles away from Big Water, Utah







STORIES FROM OUR PARTNERS